| time (UTC) | temp F | wind direction | speed MPH | gust MPH | rain 1hr in | rain 24hr in | rain mn in | humidity % | barometer mb |
| 20260506040030 | 68 | 0 | 0.0 | 2.0 | 0.00 | 0.00 | 0.00 | 63 | 1010.0 |
| 20260506034530 | 69 | 0 | 0.0 | 7.0 | 0.00 | 0.00 | 0.00 | 62 | 1009.9 |
| 20260506033034 | 69 | 0 | 0.0 | 10.0 | 0.00 | 0.00 | 0.00 | 62 | 1009.9 |
| 20260506031535 | 69 | 0 | 0.0 | 4.0 | 0.00 | 0.00 | 0.00 | 61 | 1009.9 |
| 20260506030051 | 69 | 0 | 1.0 | 5.0 | 0.00 | 0.00 | 0.00 | 60 | 1010.0 |
| 20260506024530 | 70 | 0 | 0.0 | 7.0 | 0.00 | 0.00 | 0.00 | 60 | 1010.0 |
| 20260506023030 | 70 | 0 | 0.0 | 3.0 | 0.00 | 0.00 | 0.00 | 59 | 1010.1 |
| 20260506021527 | 71 | 0 | 0.0 | 6.0 | 0.00 | 0.00 | 0.00 | 57 | 1010.1 |
| 20260506020027 | 72 | 232 | 1.0 | 10.0 | 0.00 | 0.00 | 0.00 | 55 | 1010.0 |
| 20260506014528 | 73 | 0 | 0.0 | 5.0 | 0.00 | 0.00 | 0.00 | 51 | 1010.0 |
| 20260506013031 | 73 | 0 | 0.0 | 9.0 | 0.00 | 0.00 | 0.00 | 49 | 1009.8 |
| 20260506011535 | 74 | 0 | 0.0 | 7.0 | 0.00 | 0.00 | 0.00 | 47 | 1009.7 |
| 20260506010026 | 74 | 0 | 0.0 | 6.0 | 0.00 | 0.00 | 0.00 | 45 | 1009.5 |
| 20260506004544 | 75 | 0 | 0.0 | 3.0 | 0.00 | 0.00 | 0.00 | 44 | 1009.4 |
| 20260506003036 | 75 | 276 | 0.0 | 6.0 | 0.00 | 0.00 | 0.00 | 45 | 1009.1 |
| 20260506001531 | 75 | 0 | 0.0 | 7.0 | 0.00 | 0.00 | 0.00 | 46 | 1009.0 |
| 20260506000028 | 76 | 271 | 0.0 | 8.0 | 0.00 | 0.00 | 0.00 | 45 | 1008.9 |
| 20260505234534 | 76 | 0 | 0.0 | 4.0 | 0.00 | 0.00 | 0.00 | 44 | 1008.8 |
| 20260505233030 | 77 | 0 | 0.0 | 8.0 | 0.00 | 0.00 | 0.00 | 43 | 1008.7 |
| 20260505231530 | 77 | 0 | 0.0 | 5.0 | 0.00 | 0.00 | 0.00 | 41 | 1008.7 |
| 20260505230041 | 79 | 109 | 1.0 | 8.0 | 0.00 | 0.00 | 0.00 | 40 | 1008.5 |
| 20260505224535 | 79 | 0 | 0.0 | 13.0 | 0.00 | 0.00 | 0.00 | 37 | 1008.3 |
| 20260505223030 | 79 | 0 | 0.0 | 8.0 | 0.00 | 0.00 | 0.00 | 35 | 1008.2 |
| 20260505221529 | 79 | 0 | 2.0 | 15.0 | 0.00 | 0.00 | 0.00 | 35 | 1008.2 |
| 20260505220032 | 80 | 254 | 4.0 | 17.0 | 0.00 | 0.00 | 0.00 | 34 | 1008.4 |
| 20260505214533 | 80 | 271 | 1.0 | 12.0 | 0.00 | 0.00 | 0.00 | 35 | 1008.1 |
| 20260505213030 | 81 | 0 | 5.0 | 14.0 | 0.00 | 0.00 | 0.00 | 33 | 1008.2 |
| 20260505211530 | 81 | 275 | 2.0 | 16.0 | 0.00 | 0.00 | 0.00 | 33 | 1008.2 |
| 20260505210028 | 81 | 289 | 2.0 | 14.0 | 0.00 | 0.00 | 0.00 | 32 | 1008.0 |
| 20260505204533 | 81 | 232 | 2.0 | 15.0 | 0.00 | 0.00 | 0.00 | 30 | 1008.0 |
| 20260505203034 | 81 | 261 | 5.0 | 13.0 | 0.00 | 0.00 | 0.00 | 30 | 1007.9 |
| 20260505201533 | 81 | 246 | 4.0 | 11.0 | 0.00 | 0.00 | 0.00 | 32 | 1008.0 |
| 20260505200032 | 82 | 284 | 5.0 | 16.0 | 0.00 | 0.00 | 0.00 | 32 | 1008.1 |
| 20260505194530 | 82 | 284 | 1.0 | 17.0 | 0.00 | 0.00 | 0.00 | 36 | 1008.3 |
| 20260505193030 | 81 | 302 | 1.0 | 10.0 | 0.00 | 0.00 | 0.00 | 37 | 1008.2 |
| 20260505191528 | 81 | 0 | 1.0 | 10.0 | 0.00 | 0.00 | 0.00 | 38 | 1008.4 |
| 20260505190037 | 81 | 251 | 1.0 | 17.0 | 0.00 | 0.00 | 0.00 | 38 | 1008.5 |
| 20260505184531 | 81 | 33 | 0.0 | 11.0 | 0.00 | 0.00 | 0.00 | 40 | 1008.7 |
| 20260505183030 | 81 | 0 | 2.0 | 11.0 | 0.00 | 0.00 | 0.00 | 40 | 1008.9 |
| 20260505181527 | 81 | 144 | 2.0 | 13.0 | 0.00 | 0.00 | 0.00 | 40 | 1009.2 |
| 20260505180036 | 81 | 284 | 2.0 | 17.0 | 0.00 | 0.00 | 0.00 | 41 | 1009.3 |
| 20260505174526 | 81 | 304 | 1.0 | 13.0 | 0.00 | 0.00 | 0.00 | 41 | 1009.3 |
| 20260505173030 | 81 | 0 | 1.0 | 13.0 | 0.00 | 0.00 | 0.00 | 43 | 1009.5 |
| 20260505171528 | 81 | 0 | 1.0 | 9.0 | 0.00 | 0.00 | 0.00 | 45 | 1009.4 |
| 20260505170033 | 81 | 0 | 1.0 | 7.0 | 0.00 | 0.00 | 0.00 | 43 | 1009.6 |
| 20260505164537 | 80 | 0 | 2.0 | 10.0 | 0.00 | 0.00 | 0.00 | 44 | 1009.5 |
| 20260505163032 | 79 | 284 | 3.0 | 10.0 | 0.00 | 0.00 | 0.00 | 43 | 1009.7 |
| 20260505161530 | 79 | 295 | 2.0 | 8.0 | 0.00 | 0.00 | 0.00 | 45 | 1009.7 |
| 20260505153037 | 76 | 288 | 1.0 | 10.0 | 0.00 | 0.00 | 0.00 | 48 | 1010.3 |
| 20260505151530 | 76 | 103 | 1.0 | 11.0 | 0.00 | 0.00 | 0.00 | 48 | 1010.4 |
| 20260505124530 | 65 | 311 | 3.0 | 9.0 | 0.00 | 0.00 | 0.00 | 64 | 1011.2 |
| 20260505123027 | 63 | 0 | 0.0 | 6.0 | 0.00 | 0.00 | 0.00 | 69 | 1011.1 |
| 20260505121532 | 58 | 0 | 0.0 | 2.0 | 0.00 | 0.00 | 0.00 | 80 | 1011.0 |
| 20260505120039 | 54 | 0 | 0.0 | 2.0 | 0.00 | 0.00 | 0.00 | 90 | 1011.1 |
| 20260505114530 | 52 | 0 | 0.0 | 0.0 | 0.00 | 0.00 | 0.00 | 91 | 1011.1 |
| 20260505113027 | 50 | 0 | 0.0 | 0.0 | 0.00 | 0.00 | 0.00 | 92 | 1011.0 |
| 20260505111531 | 49 | 0 | 0.0 | 0.0 | 0.00 | 0.00 | 0.00 | 91 | 1011.0 |
| 20260505101530 | 48 | 0 | 0.0 | 0.0 | 0.00 | 0.00 | 0.00 | 88 | 1010.8 |
| 20260505100030 | 48 | 0 | 0.0 | 0.0 | 0.00 | 0.00 | 0.00 | 88 | 1010.6 |
| 20260505094530 | 49 | 0 | 0.0 | 0.0 | 0.00 | 0.00 | 0.00 | 88 | 1010.4 |
| 20260505093027 | 50 | 0 | 0.0 | 0.0 | 0.00 | 0.00 | 0.00 | 87 | 1010.2 |
| 20260505091532 | 50 | 0 | 0.0 | 0.0 | 0.00 | 0.00 | 0.00 | 86 | 1010.1 |
| 20260505090030 | 51 | 0 | 0.0 | 0.0 | 0.00 | 0.00 | 0.00 | 86 | 1010.0 |
| 20260505084543 | 51 | 0 | 0.0 | 0.0 | 0.00 | 0.00 | 0.00 | 85 | 1010.0 |
| 20260505083046 | 52 | 0 | 0.0 | 0.0 | 0.00 | 0.00 | 0.00 | 84 | 1010.0 |
| 20260505081530 | 53 | 0 | 0.0 | 0.0 | 0.00 | 0.00 | 0.00 | 84 | 1010.0 |
| 20260505080037 | 53 | 0 | 0.0 | 0.0 | 0.00 | 0.00 | 0.00 | 84 | 1010.1 |
| 20260505074530 | 53 | 0 | 0.0 | 0.0 | 0.00 | 0.00 | 0.00 | 83 | 1010.1 |
| 20260505073040 | 53 | 0 | 0.0 | 0.0 | 0.00 | 0.00 | 0.00 | 82 | 1010.0 |
| 20260505071541 | 54 | 0 | 0.0 | 0.0 | 0.00 | 0.00 | 0.00 | 82 | 1010.0 |
| 20260505070040 | 54 | 0 | 0.0 | 2.0 | 0.00 | 0.00 | 0.00 | 82 | 1009.9 |
| 20260505064535 | 54 | 0 | 0.0 | 2.0 | 0.00 | 0.00 | 0.00 | 82 | 1009.9 |
| 20260505063036 | 54 | 0 | 0.0 | 0.0 | 0.00 | 0.00 | 0.00 | 82 | 1009.7 |
| 20260505061531 | 52 | 281 | 0.0 | 2.0 | 0.00 | 0.00 | 0.00 | 84 | 1009.9 |
| 20260505060049 | 51 | 0 | 0.0 | 0.0 | 0.00 | 0.00 | 0.00 | 85 | 1009.8 |
| 20260505054526 | 49 | 0 | 0.0 | 2.0 | 0.00 | 0.00 | 0.00 | 86 | 1009.7 |
| 20260505053028 | 48 | 0 | 0.0 | 2.0 | 0.00 | 0.00 | 0.00 | 85 | 1009.9 |
| 20260505051530 | 48 | 0 | 0.0 | 0.0 | 0.00 | 0.00 | 0.00 | 85 | 1010.0 |
| 20260505041537 | 48 | 0 | 0.0 | 0.0 | 0.00 | 0.00 | 0.00 | 83 | 1010.0 |